Location: College Park
(38.9810°N, 76.9370°W)
Time: 07:33:03
(UTC-05:00)

ISS - Pass Details

Date: 11 January 2018
Orbit: 402 x 407 km, 51.6° (Epoch: 22 January)

Event Time Altitude Azimuth Distance (km) Brightness Sun altitude
Exits shadow 05:51:48 16° 1° (N) 1,167 -1.6 -18.0°
Maximum altitude 05:52:43 17° 22° (NNE) 1,101 -1.6 -17.8°
Drops below altitude 10° 05:55:00 10° 67° (ENE) 1,465 -0.2 -17.4°
Sets 05:57:35 0° 88° (E) 2,324 1.5 -16.9°
